Notices

What's New in latest Release from April 7th, 2021:

- Updated Glossary, including Speed of Maximum Gust, and Total Hourly Precipitation

- Updated national and regional climate services offices contacts and prices information

- Addition of station inventory lists for 1981-2010, 1971-2000, and 1961-1990 Normals.

If you haven't already, please take our survey and provide feedback about our website: https://eccc.sondage-survey.ca/f/LanguageSelection.aspx?s=442ca660-fcf1-47c0-95a9-59707d6fd709

Hourly Data Report for September 19, 2017

VICTORIA UNIVERSITY CS
BRITISH COLUMBIA

48°27'25.200" N
123°18'16.600" W
60.10 m
1018598
71783
WYJ

Download Data

Hourly Data (September 2017)
Hourly Data Report for September 19, 2017
TIME
LST
Temp Definition
°C
Dew Point Definition
°C
Rel Hum Definition
%
Precip. Amount Definition
mm

Wind Dir Definition
10's deg

Wind Spd Definition
km/h
Visibility Definition
km
Stn Press Definition
kPa
Hmdx Definition


Wind Chill Definition


Weather Definition


00:00 10.2 9.7 96 0.0 2 3   99.67     LegendNANA
01:00 10.0 9.5 97 0.0 0 1   99.69     LegendNANA
02:00 9.3 8.8 96 0.2 1 2   99.69     LegendNANA
03:00 9.5 9.0 97 0.0 0 1   99.71     LegendNANA
04:00 9.0 8.6 98 0.0 1 3   99.73     LegendNANA
05:00 10.1 9.7 97 0.0 1 4   99.78     LegendNANA
06:00 10.2 9.3 94 0.0 31 3   99.84     LegendNANA
07:00 10.2 9.3 94 0.0 35 6   99.87     LegendNANA
08:00 10.9 9.5 91 0.0 35 6   99.92     LegendNANA
09:00 12.6 9.5 81 0.0 35 8   99.95     LegendNANA
10:00 12.9 9.3 79 0.0 1 5   99.98     LegendNANA
11:00 12.1 9.1 82 0.0 5 3   100.02     LegendNANA
12:00 12.0 9.5 85 0.4 19 2   100.03     LegendNANA
13:00 12.7 9.9 83 0.0 10 4   100.00     LegendNANA
14:00 12.4 9.1 80 0.0 6 5   99.99     LegendNANA
15:00 14.1 11.0 81 0.3 10 4   99.97     LegendNANA
16:00 12.5 9.4 81 0.0 4 4   99.96     LegendNANA
17:00 12.7 9.3 80 0.0 35 1   99.94     LegendNANA
18:00 12.0 9.1 82 0.0 26 2   99.93     LegendNANA
19:00 11.9 6.9 72 0.0 25 5   99.93     LegendNANA
20:00 11.5 7.4 76 0.0 28 4   99.91     LegendNANA
21:00 11.2 7.9 81 0.0 28 4   99.87     LegendNANA
22:00 11.3 8.1 81 0.0 27 4   99.84     LegendNANA
23:00 10.6 7.8 83 0.0 26 2   99.82     LegendNANA

Notes on Data Quality.

Legend

  • E = Estimated
  • M = Missing
  • NA = Not Available*
  • [empty] = Indicates an unobserved value
Date modified: